Tracking 20623 objects as of 3-Apr-2020
HD Live streaming from Space Station
objects crossing your sky now

METEOR 1-10 DEB

Track METEOR 1-10 DEB now!
10-day predictions


NORAD ID: 8826
Int'l Code: 1971-120C
Perigee: 703.3 km
Apogee: 716.5 km
Inclination: 81.2 °
Period: 98.8 minutes
Semi major axis: 7080 km
RCS: 0.6193 m2 (medium)
Launch date: December 29, 1971
Source: Commonwealth of Independent States (former USSR) (CIS)
Launch site: PLESETSK MISSILE AND SPACE COMPLEX (PKMTR)

Note: This is SATELLITE DEBRIS
aabbcc
Your satellite tracking list
Your tracking list is empty




NASA's NSSDC Master Catalog

Two Line Element Set (TLE):
1  8826U 71120C   20094.36550680 +.00000298 +00000-0 +62869-4 0  9997
2  8826 081.2381 196.5944 0009372 258.9045 101.1098 14.57039179518438
Source of the keplerian elements: AFSPC